Home > Weather > Swansea > Past weeks

Flag for United Kingdom Past Weather in Swansea, Wales, United Kingdom — Yesterday and Last 2 Weeks

Now
58 °F

Cool.


Feels Like: 57 °F
Forecast: 53 / 65 °F
Wind: 5 mph from Northwest

Location: Mumbles

Current Time: Jul 30, 2016 at 3:01:58 AM

Latest Report: Jul 30, 2016 at 2:00 AM


Visibility: N/A

Pressure: 29.96 "Hg

Humidity: 85%

Dew Point: 53 °F

Location of SwanseaLocation

Past Weather in Swansea — Graph

°F

Swansea Temperature Yesterday

Maximum temperature yesterday: 64 °F (at 3:00 PM)
Minimum temperature yesterday: 60 °F (at 11:00 PM)
Average temperature yesterday: 62 °F

High & Low Weather Summary for the Past Weeks

 TemperatureHumidityPressure
High77 °F (Jul 18, 8:00 PM)100% (Jul 15, 11:00 PM)30.38 "Hg (Jul 15, 11:00 PM)
Low56 °F (Jul 15, 1:00 AM)56% (Jul 18, 6:00 PM)29.72 "Hg (Jul 20, 5:00 AM)
Average63 °F89%30.11 "Hg
* Reported Jul 15 1:00 AM — Jul 30 1:00 AM, Swansea, Weather by CustomWeather, © 2016

Note: Actual official high and low records may vary slightly from our data, if they occured in-between our weather recording intervals... More about our weather records

Advertising

Swansea Weather History for the Previous 24 Hours

Scroll right to see more
 ConditionsComfort  
Time TempWeatherWind HumidityBarometerVisibility
1:00 AM
Sat, Jul 30
58 °FCool.5 mph84%29.96 "HgN/A
12:00 AM58 °FCool.5 mph85%29.95 "HgN/A
11:00 PM
Fri, Jul 29
60 °FCool.6 mph84%29.95 "HgN/A
10:00 PM60 °FCool.8 mph85%29.94 "HgN/A
9:00 PM61 °FCool.9 mph87%29.93 "HgN/A
8:00 PM62 °FCool.12 mph94%29.92 "HgN/A
7:00 PM62 °FCool.14 mph93%29.91 "HgN/A
6:00 PM62 °FMild.13 mph87%29.90 "HgN/A
5:00 PM63 °FMild.17 mph84%29.90 "HgN/A
4:00 PM64 °FMild.16 mph84%29.90 "HgN/A
3:00 PM64 °FMild.17 mph81%29.90 "HgN/A
2:00 PM64 °FMild.22 mph87%29.89 "HgN/A
1:00 PM63 °FMild.21 mph87%29.89 "HgN/A
12:00 PM63 °FMild.22 mph87%29.88 "HgN/A
11:00 AM63 °FMild.14 mph91%29.89 "HgN/A
10:00 AM60 °FCool.10 mph96%29.89 "HgN/A
9:00 AM60 °FCool.7 mph96%29.88 "HgN/A
8:00 AM61 °FCool.9 mph95%29.88 "HgN/A
6:00 AM60 °FCool.9 mph97%29.87 "HgN/A
5:00 AM60 °FCool.8 mph97%29.87 "HgN/A
4:00 AM61 °FCool.12 mph98%29.86 "HgN/A
Weather by CustomWeather, © 2016

See weather overviewHow to use our weather pages